[[{"header":{"parameterUnit":"m.s-1","parameterCategory":1,"la1":30.2991,"la2":30.254,"lo1":-89.0895,"lo2":-89.0444,"dy":0.0017,"dx":0.0017,"nx":28,"ny":28,"refTime":"2025-06-15T21:00:00:Z","depth":0,"parameterNumber":2,"parameterNumberName":"U-component_of_WINDS"},"data":[0,0,0,0,0,0,0,0,0,0,0,0,0,0,0,0,0,0,0,0,0,0,0,0,0,0,0,0,0,0,0,0,0,0,0,0,0,0,0,0,0,0,0,0,0,0,0,0,0,0,0,0,0,0,0,0,0,0,4.7886,4.7887,0,4.7919,4.7919,4.792,4.7853,4.7851,4.7849,4.7847,4.7877,4.788,4.7882,0,0,0,0,0,0,0,0,0,0,0,0,0,4.7762,4.7765,4.7886,4.7887,4.7887,4.7919,4.7919,4.792,4.7853,4.7851,4.7848,4.7846,4.7876,4.7879,4.7883,0,0,0,0,0,0,0,0,0,0,0,0,0,4.7808,4.7766,4.7886,4.7858,4.7856,4.7919,4.7919,4.792,4.7854,4.7851,4.7847,4.7844,4.7875,4.7879,4.7883,4.7974,0,0,4.7896,4.7898,0,0,0,0,0,0,0,0,4.7805,4.7812,4.7862,4.786,4.7858,4.7879,4.7887,4.7938,4.7855,4.7854,4.7846,4.7843,4.788,4.7883,4.7897,4.7976,4.7977,4.7896,4.7899,4.7901,4.7902,0,0,0,0,0,0,0,4.7802,4.781,4.7899,4.7862,4.786,4.7842,4.7845,4.7896,4.7885,4.7854,4.7849,4.7854,4.7878,4.7893,4.7897,4.7977,4.7896,4.79,4.7903,4.7904,4.8131,4.8135,0,0,0,0,0,0,4.7803,4.7808,4.7898,4.79,4.7823,4.7847,4.785,4.7875,4.7884,4.7882,4.7857,4.7851,4.7887,4.7892,4.7898,4.8004,4.7901,4.7905,4.7907,4.8128,4.8132,4.8136,0,0,0,0,0,0,4.7801,4.7812,4.7897,4.7853,4.7862,4.7853,4.7881,4.7877,4.7892,4.7886,4.7884,4.7874,4.7885,4.7892,4.7956,4.8004,4.7907,4.791,4.8124,4.8129,4.8134,4.8217,0,0,0,0,0,0,4.7797,4.7811,4.7847,4.7854,4.7865,4.7955,4.7884,4.788,4.79,4.7892,4.7902,4.79,4.7883,4.795,4.796,4.8008,4.7914,4.8119,4.8126,4.8132,4.821,4.8225,4.8237,0,0,0,0,0,4.7793,4.7869,4.7849,4.786,4.7909,4.7958,4.7964,4.7943,4.7904,4.7939,4.7935,4.79,4.7997,4.7957,4.7968,4.8018,4.8116,4.8124,4.8132,4.8204,4.8222,4.8237,0,0,0,0,0,0,4.7866,4.7869,4.7847,4.7928,4.7943,4.7947,4.799,4.7963,4.799,4.7981,4.7953,4.7956,4.8025,4.8028,4.7983,4.8106,4.805,4.806,4.8101,4.8118,4.8131,4.8128,4.7917,0,0,0,0,0,4.7891,4.7932,4.7932,4.8003,4.8012,4.8,4.8021,4.8003,4.8018,4.8024,4.8025,4.804,4.8073,4.8096,4.8127,4.8211,4.8211,4.8251,4.8264,4.8275,4.8284,4.8327,4.8344,4.8162,4.8162,4.8162,0,0,4.7944,4.7951,4.7978,4.8018,4.8028,4.8069,4.8006,4.8053,4.8083,4.8031,4.8091,4.8093,4.8107,4.8181,4.8214,4.8185,4.8335,4.8285,4.8294,4.8297,4.8337,4.8354,4.8369,4.8167,4.8166,4.8165,0,0,4.8061,4.8071,4.813,4.8142,4.8159,4.815,4.8165,4.8173,4.8172,4.8232,4.8194,4.8228,4.8288,4.8299,4.8313,4.8434,4.8402,4.8445,4.8515,4.8557,4.8571,4.8584,4.8625,4.864,4.8454,4.8454,4.8454,0,4.8124,4.8186,4.8164,4.8213,4.8231,4.8187,4.8246,4.8258,4.8284,4.8296,4.8265,4.8337,4.8344,4.842,4.8449,4.8463,4.8476,4.8443,4.8571,4.8583,4.8595,4.8634,4.865,4.8459,4.8459,4.8458,4.8458,0,4.8261,4.8305,4.8351,4.8377,4.84,4.8454,4.8439,4.8465,4.8446,4.844,4.8501,4.8508,4.8539,4.8556,4.8538,4.8629,4.861,4.8576,4.8519,4.8617,4.8653,4.8668,4.8466,4.8464,4.8463,4.8462,0,0,4.8424,4.8438,4.8455,4.8465,4.8481,4.8513,4.8565,4.8596,4.8617,4.8637,4.8678,4.8729,4.8697,4.8712,4.8695,4.8732,4.8826,4.8692,4.8692,4.8715,4.8924,4.8948,4.8966,4.8805,4.8808,4.881,4.8922,0,4.8538,4.8627,4.8609,4.8696,4.8734,4.8694,4.8738,4.8751,4.8748,4.8779,4.8775,4.8811,4.8767,4.8775,4.8811,4.8807,4.8867,4.8799,4.8841,4.8843,4.8837,4.8985,4.9011,4.9116,4.8936,4.8939,4.894,0,4.8683,4.8708,4.8799,4.8807,4.8823,4.8863,4.8889,4.8921,4.8934,4.8929,4.8947,4.8922,4.8971,4.8916,4.8982,4.8937,4.8953,4.8954,4.8957,4.8959,4.8896,4.8988,4.915,4.9164,4.8963,4.8961,4.8959,0,4.879,4.8847,4.8908,4.8919,4.893,4.8959,4.8965,4.8976,4.8995,4.9018,4.903,4.9059,4.9074,4.9096,4.9079,4.904,4.9148,4.9091,4.9143,4.9143,4.9165,4.9164,4.9329,4.918,4.918,4.918,4.9179,0,4.8918,4.8975,4.8956,4.8993,4.9055,4.9033,4.9095,4.9095,4.9106,4.9141,4.9108,4.9142,4.9119,4.9151,4.9138,4.9194,4.9202,4.9197,4.9193,4.9199,4.9199,4.9208,4.9199,4.9184,4.9183,4.9182,4.9181,0,4.9047,4.9037,4.9101,4.9106,4.9109,4.9154,4.9158,4.9192,4.9186,4.9232,4.9242,4.9232,4.9268,4.9254,4.9292,4.9283,4.9354,4.9341,4.9349,4.9345,4.9397,4.9391,4.9571,4.9593,4.9433,4.9434,4.9436,0,4.9129,4.9171,4.9182,4.9204,4.9212,4.9248,4.9268,4.9248,4.927,4.9288,4.932,4.9353,4.9378,4.9437,4.9433,4.9461,4.9447,4.9508,4.9451,4.9455,4.9445,4.9442,4.9445,4.9519,4.9521,4.9522,4.9524,0,4.9274,4.9267,4.9297,4.9325,4.935,4.9371,4.9389,4.9409,4.939,4.9416,4.9452,4.9472,4.9511,4.9543,4.9568,4.9573,4.9545,4.9542,4.9555,4.956,4.9562,4.956,4.9378,4.9537,4.9536,4.9535,4.9534,4.9534,4.938,4.9415,4.9428,4.9462,4.9474,4.9491,4.9523,4.9522,4.9552,4.9582,4.9569,4.961,4.9622,4.9653,4.9662,4.9693,4.9669,4.9688,4.9693,4.9697,4.9703,4.956,4.9698,4.9698,4.9697,4.9697,4.9697,0,4.9521,4.9527,4.9559,4.9586,4.9613,4.9585,4.9604,4.9627,4.9665,4.9678,4.9704,4.9745,4.9776,4.9775,4.9804,4.9829,4.9816,4.9837,4.9833,4.9834,4.9724,4.9709,4.9846,4.9846,4.9846,4.9846,4.9846,4.9846,4.9598,4.9655,4.965,4.9712,4.9717,4.9758,4.9771,4.9786,4.9797,4.9845,4.9871,4.987,4.9877,4.9906,4.9933,4.9931,4.9942,4.9967,4.9961,4.9857,4.9842,4.9828,4.9813,4.997,4.9971,5.0068,5.0069,5.0069]},{"header":{"parameterUnit":"m.s-1","parameterCategory":1,"la1":30.2991,"la2":30.254,"lo1":-89.0895,"lo2":-89.0444,"dy":0.0017,"dx":0.0017,"nx":28,"ny":28,"refTime":"2025-06-15T21:00:00:Z","depth":0,"parameterNumber":3,"parameterNumberName":"V-component_of_WINDS"},"data":[0,0,0,0,0,0,0,0,0,0,0,0,0,0,0,0,0,0,0,0,0,0,0,0,0,0,0,0,0,0,0,0,0,0,0,0,0,0,0,0,0,0,0,0,0,0,0,0,0,0,0,0,0,0,0,0,0,0,3.4447,3.4452,0,3.5002,3.5009,3.5015,3.5251,3.525,3.5249,3.5248,3.5817,3.5833,3.5848,0,0,0,0,0,0,0,0,0,0,0,0,0,3.3587,3.3601,3.4446,3.4453,3.446,3.5001,3.5009,3.5017,3.5251,3.525,3.5248,3.5247,3.5812,3.5831,3.585,0,0,0,0,0,0,0,0,0,0,0,0,0,3.4033,3.3606,3.4445,3.4642,3.4665,3.5,3.5009,3.5019,3.5251,3.525,3.5248,3.5247,3.5805,3.5829,3.5853,3.6032,0,0,3.5926,3.5937,0,0,0,0,0,0,0,0,3.4007,3.4064,3.4606,3.4629,3.4656,3.5056,3.4915,3.5359,3.5251,3.5029,3.5248,3.5246,3.5565,3.5609,3.5716,3.6059,3.6083,3.5929,3.5943,3.5954,3.596,0,0,0,0,0,0,0,3.3976,3.4042,3.4666,3.4614,3.4644,3.4703,3.4764,3.5,3.5299,3.5048,3.5066,3.5129,3.5578,3.5692,3.5731,3.6092,3.5928,3.5949,3.5964,3.5974,3.661,3.6612,0,0,0,0,0,0,3.3913,3.4014,3.4649,3.4683,3.4321,3.4719,3.4788,3.4929,3.5297,3.5351,3.513,3.5138,3.5652,3.5703,3.5752,3.5988,3.5953,3.5976,3.599,3.6607,3.661,3.6613,0,0,0,0,0,0,3.3893,3.3967,3.4626,3.4354,3.4442,3.4736,3.4892,3.4941,3.5055,3.5359,3.5413,3.5192,3.5653,3.5718,3.5961,3.6011,3.5987,3.6009,3.6604,3.6608,3.6611,3.6458,0,0,0,0,0,0,3.3868,3.3959,3.403,3.4354,3.4456,3.4825,3.4895,3.4953,3.5096,3.5112,3.5431,3.5483,3.5657,3.5924,3.5985,3.6044,3.6028,3.6601,3.6606,3.661,3.646,3.6456,3.6453,0,0,0,0,0,3.3836,3.3965,3.4033,3.4108,3.4552,3.4828,3.4886,3.5084,3.5099,3.5174,3.5368,3.5472,3.5994,3.5946,3.6018,3.6084,3.6599,3.6605,3.661,3.6462,3.6457,3.6453,0,0,0,0,0,0,3.3641,3.4011,3.409,3.4328,3.4544,3.4867,3.4967,3.5073,3.529,3.5295,3.5531,3.5601,3.5824,3.5979,3.5918,3.6277,3.6305,3.6325,3.6168,3.6166,3.6162,3.6121,3.6048,0,0,0,0,0,3.3625,3.3818,3.4132,3.4311,3.4416,3.4671,3.48,3.4933,3.5167,3.526,3.5472,3.5695,3.591,3.6046,3.6261,3.6483,3.6556,3.6563,3.6559,3.6555,3.657,3.6699,3.6706,3.663,3.663,3.663,0,0,3.3596,3.3822,3.393,3.4278,3.4461,3.4656,3.4748,3.495,3.5097,3.5291,3.5534,3.5696,3.596,3.6193,3.6307,3.6329,3.6606,3.6562,3.6556,3.6574,3.6705,3.6712,3.6718,3.6634,3.6633,3.6633,0,0,3.3642,3.3831,3.4002,3.4183,3.446,3.4629,3.4669,3.4976,3.5092,3.5338,3.5487,3.5665,3.6029,3.6212,3.6352,3.6463,3.6567,3.6526,3.6507,3.663,3.6636,3.6643,3.6683,3.6695,3.654,3.6539,3.6539,0,3.357,3.387,3.4076,3.4271,3.4419,3.4602,3.4776,3.4942,3.5274,3.5372,3.5392,3.5853,3.6044,3.6322,3.6348,3.6456,3.6509,3.6492,3.6618,3.6627,3.6636,3.6677,3.6692,3.6533,3.6533,3.6534,3.6535,0,3.3768,3.3973,3.4078,3.4393,3.4553,3.4736,3.497,3.5107,3.5225,3.5391,3.5639,3.5874,3.6139,3.6214,3.6332,3.6509,3.6514,3.6573,3.6607,3.6633,3.6676,3.6693,3.6523,3.6525,3.6527,3.6529,0,0,3.371,3.4135,3.417,3.4315,3.4631,3.4794,3.4984,3.5243,3.5356,3.5578,3.5744,3.6047,3.6103,3.6261,3.6401,3.6508,3.6582,3.6555,3.6565,3.6552,3.6791,3.6746,3.6761,3.6651,3.6655,3.6658,3.677,0,3.38,3.4149,3.4339,3.4609,3.4801,3.4976,3.5142,3.5354,3.5514,3.57,3.5877,3.6088,3.6145,3.6242,3.6356,3.6548,3.6633,3.6543,3.6809,3.6815,3.6739,3.6784,3.6738,3.6831,3.6787,3.6791,3.6793,0,3.3952,3.417,3.4458,3.4752,3.484,3.4985,3.5237,3.5413,3.5656,3.5765,3.594,3.6078,3.6285,3.63,3.6589,3.6523,3.6642,3.6752,3.6761,3.6795,3.6807,3.682,3.6866,3.688,3.6821,3.6819,3.6817,0,3.3881,3.4247,3.4467,3.4585,3.4933,3.5031,3.5181,3.5423,3.5565,3.5785,3.588,3.612,3.6251,3.6434,3.6632,3.6625,3.6901,3.6933,3.6998,3.6993,3.705,3.7044,3.7117,3.7123,3.7123,3.7123,3.7122,0,3.3963,3.4132,3.444,3.4575,3.477,3.4986,3.5173,3.5336,3.5549,3.5719,3.5884,3.604,3.6292,3.6479,3.6635,3.6851,3.6909,3.7002,3.7042,3.6989,3.6977,3.7072,3.7071,3.7127,3.7126,3.7125,3.7124,0,3.3918,3.413,3.4382,3.4689,3.477,3.49,3.5165,3.5302,3.5469,3.5682,3.5744,3.6007,3.6235,3.6451,3.6756,3.6861,3.7077,3.7128,3.6995,3.7018,3.7071,3.7063,3.7209,3.7239,3.7221,3.7221,3.7221,0,3.3956,3.4091,3.4413,3.4538,3.4684,3.4884,3.503,3.5247,3.5392,3.5678,3.5781,3.6021,3.6226,3.6582,3.68,3.7034,3.7093,3.7128,3.713,3.7071,3.7096,3.7085,3.71,3.7124,3.7123,3.7123,3.7122,0,3.4003,3.4101,3.4305,3.4546,3.4715,3.4915,3.5121,3.5213,3.5469,3.5624,3.586,3.6017,3.6329,3.6565,3.6824,3.6978,3.7093,3.7119,3.7147,3.7095,3.7012,3.7059,3.6985,3.7116,3.7116,3.7117,3.7117,3.7117,3.4003,3.4131,3.4376,3.4598,3.4775,3.4962,3.5107,3.5291,3.5491,3.5761,3.5876,3.6114,3.6354,3.6713,3.6865,3.7054,3.708,3.712,3.7131,3.7137,3.7127,3.698,3.7102,3.7102,3.7103,3.7103,3.7104,0,3.4059,3.4225,3.4426,3.4708,3.4882,3.4973,3.5205,3.5344,3.5552,3.5764,3.5961,3.6231,3.6461,3.6696,3.6939,3.7045,3.7103,3.7101,3.7097,3.713,3.7089,3.7041,3.705,3.705,3.705,3.705,3.705,3.705,3.4109,3.4329,3.4455,3.4765,3.4931,3.5165,3.5289,3.5463,3.5634,3.5928,3.6119,3.627,3.6493,3.6752,3.6967,3.703,3.7112,3.7096,3.7173,3.7131,3.7133,3.7136,3.7092,3.7111,3.7111,3.72,3.72,3.7201]}]]